Weather History for Quillayute, WA

Change the Weather History Date:

Monday, October 17, 2011

  Actual Average Record
Temperature  
Mean Temperature 50 °F 50 °F  
Max Temperature 63 °F 58 °F 71 °F (1974)
Min Temperature 37 °F 42 °F 27 °F (1984)
Degree Days  
Heating Degree Days 15 15  
Month to date heating degree days 230  
Since 1 July heating degree days 855  
Cooling Degree Days 0 0  
Month to date cooling degree days 0  
Year to date cooling degree days 19  
Moisture  
Dew Point 42 °F    
Average Humidity 82    
Maximum Humidity 97    
Minimum Humidity 60    
Precipitation  
Precipitation 0.00 in 0.35 in 2.26 in (1995)
Month to date precipitation 4.82  
Year to date precipitation 65.36  
Sea Level Pressure  
Sea Level Pressure 30.36 in    
Wind  
Wind Speed 2 mph (NNW)    
Max Wind Speed 10 mph    
Max Gust Speed 13 mph    
Visibility 10 miles    
Events      
T = Trace of Precipitation, MM = Missing Value Source: NWS Daily Summary

Daily Weather History Graph

Daily Weather History Graph

Search for Another Location

Airport:

Trip Planner

Search our weather history database for the weather conditions in past years. The results will help you decide how hot, cold, wet, or windy it might be!

Date:

Astronomy

Oct. 17, 2011 Rise Set
Actual Time 7:40 AM PDT 6:26 PM PDT
Civil Twilight 7:08 AM PDT 6:57 PM PDT
Nautical Twilight 6:32 AM PDT 7:33 PM PDT
Astronomical Twilight 5:56 AM PDT 8:09 PM PDT
Moon 9:54 PM PDT (10/17) 1:09 PM PDT (10/17)
Length of Visible Light 11h 48m
Length of Day
10h 46m
Waning Gibbous, 73% of the Moon is Illuminated
Oct 17
Waning Gibbous
Oct 19
Last Quarter
Oct 26
New
Nov 2
First Quarter
Nov 10
Full

Hourly Weather History & Observations

Time (PDT) Temp. Windchill Dew Point Humidity Pressure Visibility Wind Dir Wind Speed Gust Speed Precip Events Conditions
12:53 AM 37.9 °F - 37.0 °F 97% 30.35 in 10.0 mi Calm Calm - N/A   Partly Cloudy
1:53 AM 37.9 °F - 37.0 °F 97% 30.36 in 9.0 mi Calm Calm - N/A   Clear
2:53 AM 39.0 °F - 37.9 °F 96% 30.38 in 10.0 mi Calm Calm - N/A   Mostly Cloudy
3:53 AM 39.9 °F - 39.0 °F 97% 30.39 in 10.0 mi Calm Calm - N/A   Mostly Cloudy
4:53 AM 42.1 °F 40.2 °F 41.0 °F 96% 30.39 in 10.0 mi NNW 3.5 mph - N/A   Overcast
5:53 AM 41.0 °F - 39.9 °F 96% 30.40 in 10.0 mi Calm Calm - N/A   Mostly Cloudy
6:53 AM 41.0 °F - 39.9 °F 96% 30.40 in 10.0 mi Calm Calm - N/A   Mostly Cloudy
7:53 AM 39.9 °F - 39.0 °F 97% 30.40 in 10.0 mi Calm Calm - N/A   Clear
8:53 AM 44.1 °F - 42.1 °F 93% 30.42 in 10.0 mi Calm Calm - N/A   Overcast
9:53 AM 46.0 °F - 44.1 °F 93% 30.41 in 10.0 mi Calm Calm - N/A   Mostly Cloudy
10:53 AM 53.1 °F - 45.0 °F 74% 30.43 in 10.0 mi Calm Calm - N/A   Mostly Cloudy
11:53 AM 57.0 °F - 46.9 °F 69% 30.42 in 10.0 mi NNW 8.1 mph - N/A   Clear
12:53 PM 60.1 °F - 46.0 °F 60% 30.40 in 10.0 mi NNW 5.8 mph - N/A   Clear
1:53 PM 62.1 °F - 48.0 °F 60% 30.38 in 10.0 mi Variable 5.8 mph - N/A   Clear
2:53 PM 61.0 °F - 48.9 °F 64% 30.36 in 10.0 mi NW 6.9 mph - N/A   Clear
3:53 PM 61.0 °F - 48.0 °F 62% 30.35 in 10.0 mi NNW 8.1 mph - N/A   Clear
4:53 PM 60.1 °F - 46.0 °F 60% 30.33 in 10.0 mi NNW 8.1 mph - N/A   Clear
5:53 PM 57.9 °F - 46.0 °F 65% 30.32 in 10.0 mi North 5.8 mph - N/A   Clear
6:53 PM 53.1 °F - 44.1 °F 71% 30.32 in 10.0 mi Calm Calm - N/A   Clear
7:53 PM 48.9 °F - 41.0 °F 74% 30.32 in 10.0 mi Calm Calm - N/A   Clear
8:53 PM 46.9 °F - 42.1 °F 83% 30.32 in 10.0 mi Calm Calm - N/A   Clear
9:53 PM 44.1 °F - 41.0 °F 89% 30.32 in 10.0 mi Calm Calm - N/A   Clear
10:53 PM 44.1 °F - 39.9 °F 85% 30.30 in 10.0 mi Calm Calm - N/A   Clear
11:53 PM 44.1 °F - 39.0 °F 82% 30.28 in 10.0 mi Calm Calm - N/A   Clear